Weather History for Charleston, SC

Change the Weather History Date:

Tuesday, January 14, 2014

  Actual Average Record
Temperature  
Mean Temperature 55 °F 48 °F  
Max Temperature 66 °F 59 °F 79 °F (2013)
Min Temperature 44 °F 37 °F 19 °F (2011)
Degree Days  
Heating Degree Days 10 17  
Month to date heating degree days 227 238  
Since 1 July heating degree days 827 976  
Cooling Degree Days 0 0  
Month to date cooling degree days 2 0  
Year to date cooling degree days 2 0  
Growing Degree Days 6 (Base 50)    
Moisture  
Dew Point 52 °F    
Average Humidity 75    
Maximum Humidity 97    
Minimum Humidity 52    
Precipitation  
Precipitation 0.60 in 0.13 in 1.65 in (1995)
Month to date precipitation 2.08 1.65  
Year to date precipitation 2.08 1.65  
Sea Level Pressure  
Sea Level Pressure 29.91 in    
Wind  
Wind Speed 6 mph (WSW)    
Max Wind Speed 17 mph    
Max Gust Speed 22 mph    
Visibility 9 miles    
Events Fog , Rain    
T = Trace of Precipitation, MM = Missing Value Source: NWS Daily Summary

Daily Weather History Graph

Daily Weather History Graph

Search for Another Location

Airport:

Trip Planner

Search our weather history database for the weather conditions in past years. The results will help you decide how hot, cold, wet, or windy it might be!

Date:

Astronomy

Jan. 14, 2014 Rise Set
Actual Time 7:23 AM EST 5:35 PM EST
Civil Twilight 6:56 AM EST 6:02 PM EST
Nautical Twilight 6:26 AM EST 6:32 PM EST
Astronomical Twilight 5:56 AM EST 7:02 PM EST
Moon 4:37 PM EST (1/14) 5:57 AM EST (1/14)
Length of Visible Light 11h 06m
Length of Day
10h 12m
Waxing Gibbous, 98% of the Moon is Illuminated
Jan 14
Waxing Gibbous
Jan 15
Full
Jan 24
Last Quarter
Jan 30
New
Feb 6
First Quarter

Hourly Weather History & Observations

Time (EST) Temp. Dew Point Humidity Pressure Visibility Wind Dir Wind Speed Gust Speed Precip Events Conditions
12:56 AM 55.9 °F 51.1 °F 84% 29.93 in 10.0 mi ESE 3.5 mph - 0.00 in   Overcast
1:56 AM 55.9 °F 53.1 °F 90% 29.95 in 5.0 mi West 3.5 mph - 0.05 in Rain Rain
2:56 AM 55.9 °F 54.0 °F 93% 29.88 in 9.0 mi ESE 5.8 mph - 0.13 in Rain Light Rain
3:56 AM 55.9 °F 54.0 °F 93% 29.85 in 9.0 mi ESE 9.2 mph - 0.02 in Rain Light Rain
4:56 AM 57.0 °F 55.0 °F 93% 29.84 in 10.0 mi SSW 4.6 mph - 0.01 in   Overcast
5:07 AM 57.2 °F 55.4 °F 94% 29.84 in 9.0 mi SW 3.5 mph - N/A   Overcast
5:56 AM 57.9 °F 55.9 °F 93% 29.86 in 8.0 mi SSW 5.8 mph - 0.00 in Rain Light Rain
6:56 AM 59.0 °F 57.0 °F 93% 29.85 in 10.0 mi WSW 9.2 mph - 0.02 in Rain Light Rain
7:56 AM 60.1 °F 57.0 °F 90% 29.86 in 10.0 mi SW 8.1 mph - 0.02 in Rain Light Rain
8:56 AM 60.1 °F 57.0 °F 90% 29.85 in 10.0 mi SSW 11.5 mph - 0.01 in Rain Light Rain
9:56 AM 61.0 °F 57.9 °F 90% 29.88 in 10.0 mi SW 13.8 mph - 0.04 in Rain Light Rain
10:56 AM 61.0 °F 57.9 °F 90% 29.88 in 3.0 mi SW 11.5 mph - 0.05 in Rain Rain
11:56 AM 61.0 °F 59.0 °F 93% 29.88 in 3.0 mi West 6.9 mph - 0.15 in Rain Light Rain
12:56 PM 59.0 °F 55.9 °F 90% 29.88 in 8.0 mi WNW 10.4 mph - 0.09 in Rain Light Rain
1:07 PM 59.0 °F 55.4 °F 88% 29.87 in 10.0 mi West 9.2 mph - N/A   Mostly Cloudy
1:56 PM 61.0 °F 55.9 °F 83% 29.86 in 10.0 mi West 6.9 mph - 0.01 in   Mostly Cloudy
2:56 PM 64.0 °F 55.0 °F 73% 29.89 in 10.0 mi West 13.8 mph - N/A   Mostly Cloudy
3:56 PM 64.9 °F 51.1 °F 61% 29.90 in 10.0 mi West 8.1 mph - N/A   Scattered Clouds
4:56 PM 64.0 °F 46.9 °F 54% 29.92 in 10.0 mi West 6.9 mph - N/A   Partly Cloudy
5:56 PM 59.0 °F 46.9 °F 64% 29.94 in 10.0 mi West 4.6 mph - N/A   Clear
6:56 PM 55.0 °F 46.9 °F 74% 29.96 in 10.0 mi Calm Calm - N/A   Clear
7:56 PM 51.1 °F 46.9 °F 86% 29.99 in 10.0 mi Calm Calm - N/A   Clear
8:56 PM 48.9 °F 45.0 °F 86% 30.01 in 10.0 mi Calm Calm - N/A   Clear
9:56 PM 48.0 °F 45.0 °F 89% 30.02 in 10.0 mi Calm Calm - N/A Fog Shallow Fog
10:56 PM 46.9 °F 45.0 °F 93% 30.01 in 8.0 mi Calm Calm - N/A Fog Shallow Fog
11:56 PM 45.0 °F 42.1 °F 90% 30.00 in 7.0 mi Calm Calm - N/A Fog Shallow Fog